Location: Mentone
(34.5413°N, 85.5351°W)
Time: 15:34:23
(UTC-05:00)

Tiros 1 despin weight - Visible Passes

Search period start: 25 July 2014 00:00
Search period end: 04 August 2014 00:00
Orbit: 602 x 652 km, 48.2° (Epoch: 25 July)

Date Brightness Start Highest point End Pass type
(mag) Time Alt. Az. Time Alt. Az. Time Alt. Az.
25 Jul ? 20:39:56 10° WNW 20:43:21 20° NNW 20:46:44 10° NNE visible
25 Jul ? 22:24:04 10° NNW 22:26:27 14° N 22:28:49 10° NE visible
26 Jul ? 00:05:44 10° NNW 00:07:31 19° NNW 00:07:31 19° NNW visible
26 Jul ? 21:00:39 10° NW 21:03:24 16° N 21:06:09 10° NNE visible
26 Jul ? 22:43:48 10° NNW 22:46:35 16° N 22:48:25 13° NE visible
27 Jul ? 00:25:01 10° NW 00:25:37 13° NW 00:25:37 13° NW visible
27 Jul ? 21:21:09 10° NNW 21:23:33 14° N 21:25:56 10° NNE visible
27 Jul ? 23:03:11 10° NNW 23:06:34 21° NNE 23:06:34 21° NNE visible
28 Jul ? 21:41:06 10° NNW 21:43:42 15° N 21:46:17 10° NE visible
28 Jul ? 23:22:28 10° NW 23:24:46 24° NNW 23:24:46 24° NNW visible
29 Jul ? 20:18:08 10° NW 20:20:39 14° N 20:23:09 10° NNE visible
29 Jul ? 22:00:36 10° NNW 22:03:48 19° NNE 22:05:47 15° NE visible
29 Jul ? 23:41:48 10° NW 23:43:00 18° NW 23:43:00 18° NW visible
30 Jul ? 20:38:19 10° NNW 20:40:48 14° N 20:43:17 10° NE visible
30 Jul ? 22:19:54 10° NW 22:23:45 27° NNE 22:24:04 27° NNE visible
31 Jul ? 20:57:58 10° NNW 21:00:56 17° NNE 21:03:52 10° NE visible
31 Jul ? 22:39:12 10° NW 22:42:23 37° N 22:42:23 37° N visible
01 Aug ? 21:17:19 10° NNW 21:20:57 23° NNE 21:23:31 15° ENE visible
01 Aug ? 22:58:38 10° NW 23:00:44 27° NW 23:00:44 27° NW visible
02 Aug ? 21:36:37 10° NW 21:40:48 37° NNE 21:41:55 32° ENE visible
02 Aug ? 23:18:24 10° WNW 23:19:09 14° WNW 23:19:09 14° WNW visible
03 Aug ? 20:14:44 10° NNW 20:18:07 20° NNE 20:21:27 10° ENE visible
03 Aug ? 21:55:59 10° NW 22:00:22 70° NNE 22:00:22 70° NNE visible
